| time (UTC) | temp F | wind direction | speed knots | gust knots | rain 1hr in | rain 24hr in | rain mn in | humidity % | barometer mb |
| 20260506210017 | 76 | 105 | 0.0 | 0.0 | 0.00 | 0.00 | 0.00 | 99 | 1008.2 |
| 20260506205514 | 76 | 109 | 0.0 | 0.0 | 0.00 | 0.00 | 0.00 | 99 | 1008.2 |
| 20260506205009 | 76 | 100 | 0.0 | 0.0 | 0.00 | 0.00 | 0.00 | 99 | 1008.1 |
| 20260506204508 | 76 | 102 | 0.0 | 0.0 | 0.00 | 0.00 | 0.00 | 99 | 1008.3 |
| 20260506204004 | 76 | 102 | 0.0 | 0.0 | 0.00 | 0.00 | 0.00 | 99 | 1008.5 |
| 20260506203503 | 76 | 102 | 0.0 | 0.0 | 0.00 | 0.00 | 0.00 | 99 | 1008.3 |
| 20260506202958 | 76 | 105 | 0.0 | 0.0 | 0.00 | 0.00 | 0.00 | 99 | 1008.3 |
| 20260506202456 | 76 | 96 | 0.0 | 0.0 | 0.00 | 0.00 | 0.00 | 99 | 1008.2 |
| 20260506201952 | 76 | 96 | 0.0 | 0.0 | 0.00 | 0.00 | 0.00 | 99 | 1008.4 |
| 20260506201450 | 76 | 96 | 0.0 | 0.0 | 0.00 | 0.00 | 0.00 | 99 | 1008.3 |
| 20260506200946 | 76 | 102 | 0.0 | 0.0 | 0.00 | 0.00 | 0.00 | 99 | 1008.3 |
| 20260506200443 | 76 | 102 | 0.0 | 0.0 | 0.00 | 0.00 | 0.00 | 99 | 1008.3 |
| 20260506195939 | 76 | 98 | 0.0 | 0.0 | 0.00 | 0.00 | 0.00 | 99 | 1008.4 |
| 20260506195436 | 76 | 102 | 0.0 | 0.0 | 0.00 | 0.00 | 0.00 | 99 | 1008.4 |
| 20260506194933 | 76 | 97 | 0.0 | 0.0 | 0.00 | 0.00 | 0.00 | 99 | 1008.3 |
| 20260506194430 | 76 | 96 | 0.0 | 0.0 | 0.00 | 0.00 | 0.00 | 99 | 1008.6 |
| 20260506193927 | 76 | 107 | 0.0 | 0.0 | 0.00 | 0.00 | 0.00 | 99 | 1008.5 |
| 20260506193424 | 76 | 114 | 0.0 | 0.0 | 0.00 | 0.00 | 0.00 | 99 | 1008.6 |
| 20260506192920 | 76 | 106 | 0.0 | 0.0 | 0.00 | 0.00 | 0.00 | 99 | 1008.8 |
| 20260506192417 | 76 | 107 | 0.0 | 0.0 | 0.00 | 0.00 | 0.00 | 99 | 1008.7 |
| 20260506191914 | 76 | 109 | 0.0 | 0.0 | 0.00 | 0.00 | 0.00 | 99 | 1008.6 |
| 20260506191410 | 76 | 93 | 0.0 | 0.0 | 0.00 | 0.00 | 0.00 | 99 | 1008.7 |
| 20260506190908 | 76 | 93 | 0.0 | 0.0 | 0.00 | 0.00 | 0.00 | 99 | 1008.7 |
| 20260506190404 | 76 | 93 | 0.0 | 0.0 | 0.00 | 0.00 | 0.00 | 99 | 1008.7 |
| 20260506185901 | 76 | 103 | 0.0 | 0.0 | 0.00 | 0.00 | 0.00 | 99 | 1008.7 |
| 20260506185358 | 77 | 98 | 0.0 | 0.0 | 0.00 | 0.00 | 0.00 | 99 | 1008.8 |
| 20260506184855 | 76 | 97 | 0.0 | 0.9 | 0.00 | 0.00 | 0.00 | 99 | 1008.9 |
| 20260506184352 | 76 | 98 | 0.0 | 0.0 | 0.00 | 0.00 | 0.00 | 99 | 1008.9 |
| 20260506183849 | 76 | 96 | 0.0 | 0.0 | 0.00 | 0.00 | 0.00 | 99 | 1009.1 |
| 20260506183344 | 76 | 82 | 0.0 | 0.0 | 0.00 | 0.00 | 0.00 | 99 | 1009.2 |
| 20260506182842 | 76 | 96 | 0.0 | 0.0 | 0.00 | 0.00 | 0.00 | 99 | 1009.2 |
| 20260506182339 | 76 | 57 | 0.9 | 0.9 | 0.00 | 0.00 | 0.00 | 99 | 1009.2 |
| 20260506181836 | 76 | 104 | 0.0 | 0.0 | 0.00 | 0.00 | 0.00 | 99 | 1009.5 |
| 20260506181335 | 77 | 100 | 0.0 | 0.0 | 0.00 | 0.00 | 0.00 | 99 | 1009.4 |
| 20260506180831 | 77 | 100 | 0.0 | 0.0 | 0.00 | 0.00 | 0.00 | 99 | 1009.3 |
| 20260506180327 | 77 | 102 | 0.0 | 0.0 | 0.00 | 0.00 | 0.00 | 99 | 1009.3 |
| 20260506175824 | 77 | 106 | 0.0 | 0.0 | 0.00 | 0.00 | 0.00 | 99 | 1009.7 |
| 20260506175321 | 77 | 109 | 0.0 | 0.9 | 0.00 | 0.00 | 0.00 | 99 | 1009.3 |
| 20260506174818 | 77 | 103 | 0.0 | 0.0 | 0.00 | 0.00 | 0.00 | 99 | 1009.2 |
| 20260506174315 | 77 | 86 | 0.0 | 0.9 | 0.00 | 0.00 | 0.00 | 99 | 1009.5 |
| 20260506173812 | 77 | 115 | 0.0 | 0.0 | 0.00 | 0.00 | 0.00 | 99 | 1009.3 |
| 20260506173309 | 77 | 133 | 0.9 | 0.9 | 0.00 | 0.00 | 0.00 | 99 | 1009.3 |
| 20260506172806 | 77 | 127 | 0.9 | 1.7 | 0.00 | 0.00 | 0.00 | 99 | 1009.4 |
| 20260506172306 | 77 | 83 | 0.9 | 0.9 | 0.00 | 0.00 | 0.00 | 99 | 1009.4 |
| 20260506171800 | 77 | 96 | 0.0 | 0.0 | 0.00 | 0.00 | 0.00 | 99 | 1009.5 |
| 20260506171257 | 77 | 109 | 0.0 | 0.0 | 0.00 | 0.00 | 0.00 | 99 | 1009.5 |
| 20260506170755 | 77 | 96 | 0.0 | 0.9 | 0.00 | 0.00 | 0.00 | 99 | 1009.6 |
| 20260506170251 | 77 | 94 | 0.0 | 0.9 | 0.00 | 0.00 | 0.00 | 99 | 1009.7 |
| 20260506165750 | 77 | 86 | 0.0 | 1.7 | 0.00 | 0.00 | 0.00 | 99 | 1010.2 |
| 20260506165247 | 77 | 90 | 0.0 | 0.0 | 0.00 | 0.00 | 0.00 | 99 | 1010.2 |
| 20260506164744 | 77 | 101 | 0.0 | 0.0 | 0.00 | 0.00 | 0.00 | 99 | 1010.3 |
| 20260506164240 | 77 | 90 | 0.0 | 0.0 | 0.00 | 0.00 | 0.00 | 99 | 1010.4 |
| 20260506163737 | 77 | 101 | 0.0 | 0.0 | 0.00 | 0.00 | 0.00 | 99 | 1010.1 |
| 20260506163232 | 77 | 105 | 0.0 | 0.0 | 0.00 | 0.00 | 0.00 | 99 | 1010.5 |
| 20260506162728 | 77 | 113 | 0.0 | 0.0 | 0.00 | 0.00 | 0.00 | 99 | 1010.7 |
| 20260506162226 | 77 | 107 | 0.0 | 0.0 | 0.00 | 0.00 | 0.00 | 99 | 1010.5 |
| 20260506161723 | 77 | 107 | 0.0 | 0.0 | 0.00 | 0.00 | 0.00 | 99 | 1010.6 |
| 20260506161220 | 77 | 107 | 0.0 | 0.0 | 0.00 | 0.00 | 0.00 | 99 | 1010.7 |
| 20260506160718 | 77 | 101 | 0.0 | 0.0 | 0.00 | 0.00 | 0.00 | 99 | 1010.8 |
| 20260506160214 | 77 | 100 | 0.0 | 0.0 | 0.00 | 0.00 | 0.00 | 99 | 1010.9 |
| 20260506155713 | 77 | 90 | 0.0 | 0.9 | 0.00 | 0.29 | 0.29 | 99 | 1011.0 |
| 20260506155210 | 77 | 106 | 0.0 | 0.0 | 0.00 | 0.29 | 0.29 | 99 | 1010.8 |
| 20260506153317 | 77 | 105 | 0.0 | 0.0 | 0.00 | 0.29 | 0.29 | 99 | 1010.9 |
| 20260506152814 | 77 | 102 | 0.0 | 0.0 | 0.00 | 0.29 | 0.29 | 99 | 1010.8 |
| 20260506152311 | 77 | 93 | 0.0 | 0.0 | 0.00 | 0.29 | 0.29 | 99 | 1010.8 |
| 20260506151810 | 77 | 94 | 0.0 | 0.9 | 0.00 | 0.29 | 0.29 | 99 | 1010.7 |
| 20260506151307 | 77 | 29 | 0.0 | 0.9 | 0.00 | 0.29 | 0.29 | 99 | 1011.0 |
| 20260506150803 | 77 | 102 | 0.0 | 0.0 | 0.00 | 0.29 | 0.29 | 99 | 1010.9 |
| 20260506150304 | 77 | 102 | 0.0 | 0.0 | 0.00 | 0.29 | 0.29 | 99 | 1010.9 |
| 20260506145757 | 77 | 103 | 0.0 | 0.0 | 0.00 | 0.29 | 0.29 | 99 | 1010.8 |
| 20260506145254 | 78 | 93 | 0.0 | 0.0 | 0.00 | 0.29 | 0.29 | 99 | 1011.0 |
| 20260506144751 | 77 | 92 | 0.0 | 0.9 | 0.00 | 0.29 | 0.29 | 99 | 1010.7 |
| 20260506144248 | 77 | 60 | 0.0 | 0.9 | 0.00 | 0.29 | 0.29 | 99 | 1010.7 |
| 20260506143746 | 77 | 64 | 0.0 | 0.9 | 0.00 | 0.29 | 0.29 | 99 | 1010.8 |
| 20260506143243 | 77 | 65 | 0.0 | 0.0 | 0.00 | 0.29 | 0.29 | 99 | 1010.8 |
| 20260506142741 | 77 | 92 | 0.0 | 0.9 | 0.00 | 0.29 | 0.29 | 99 | 1010.7 |
| 20260506142239 | 77 | 37 | 0.9 | 1.7 | 0.00 | 0.29 | 0.29 | 99 | 1010.5 |
| 20260506141738 | 77 | 5 | 0.9 | 2.6 | 0.00 | 0.29 | 0.29 | 99 | 1010.5 |
| 20260506141235 | 77 | 89 | 0.9 | 1.7 | 0.00 | 0.29 | 0.29 | 99 | 1010.3 |
| 20260506140732 | 77 | 354 | 1.7 | 2.6 | 0.02 | 0.29 | 0.29 | 99 | 1010.2 |
| 20260506140229 | 77 | 88 | 0.9 | 1.7 | 0.02 | 0.29 | 0.29 | 99 | 1010.2 |
| 20260506135726 | 77 | 75 | 0.0 | 0.9 | 0.02 | 0.28 | 0.28 | 99 | 1010.2 |
| 20260506135222 | 77 | 88 | 0.0 | 0.9 | 0.05 | 0.28 | 0.28 | 99 | 1010.0 |
| 20260506134719 | 77 | 98 | 0.0 | 0.9 | 0.05 | 0.28 | 0.28 | 99 | 1009.8 |
| 20260506134215 | 77 | 90 | 0.9 | 0.9 | 0.02 | 0.28 | 0.28 | 99 | 1010.1 |
| 20260506133713 | 77 | 90 | 0.0 | 0.0 | 0.00 | 0.27 | 0.27 | 99 | 1010.1 |
| 20260506133209 | 77 | 109 | 0.0 | 0.9 | 0.02 | 0.27 | 0.27 | 99 | 1010.1 |
| 20260506132706 | 77 | 75 | 0.0 | 1.7 | 0.02 | 0.27 | 0.27 | 99 | 1009.9 |
| 20260506132203 | 77 | 62 | 0.9 | 1.7 | 0.00 | 0.27 | 0.27 | 99 | 1009.8 |
| 20260506131701 | 77 | 61 | 1.7 | 1.7 | 0.00 | 0.27 | 0.27 | 99 | 1009.5 |
| 20260506131156 | 77 | 47 | 0.9 | 4.3 | 0.00 | 0.27 | 0.27 | 99 | 1009.6 |
| 20260506130654 | 77 | 27 | 3.5 | 6.1 | 0.00 | 0.27 | 0.27 | 99 | 1009.4 |
| 20260506130151 | 77 | 68 | 1.7 | 1.7 | 0.00 | 0.27 | 0.27 | 99 | 1009.4 |
| 20260506125649 | 77 | 4 | 1.7 | 2.6 | 0.02 | 0.27 | 0.27 | 99 | 1009.5 |
| 20260506125147 | 77 | 85 | 0.9 | 2.6 | 0.02 | 0.27 | 0.27 | 99 | 1009.4 |
| 20260506124645 | 77 | 63 | 1.7 | 2.6 | 0.05 | 0.26 | 0.26 | 99 | 1009.1 |
| 20260506124142 | 77 | 65 | 0.9 | 1.7 | 0.09 | 0.26 | 0.26 | 99 | 1008.8 |
| 20260506123639 | 77 | 103 | 0.0 | 0.9 | 0.07 | 0.26 | 0.26 | 99 | 1009.1 |
| 20260506123138 | 78 | 104 | 0.0 | 0.9 | 0.09 | 0.25 | 0.25 | 99 | 1008.9 |
| 20260506122634 | 78 | 83 | 0.0 | 1.7 | 0.14 | 0.24 | 0.24 | 99 | 1008.8 |
| 20260506122132 | 78 | 102 | 0.9 | 0.9 | 0.17 | 0.23 | 0.23 | 99 | 1008.9 |
| 20260506121629 | 78 | 100 | 0.0 | 0.0 | 0.12 | 0.21 | 0.21 | 99 | 1009.0 |
| 20260506121126 | 79 | 109 | 0.0 | 0.9 | 0.09 | 0.20 | 0.20 | 99 | 1008.9 |
| 20260506120624 | 78 | 87 | 0.9 | 0.9 | 0.12 | 0.19 | 0.19 | 99 | 1008.9 |
| 20260506120121 | 79 | 101 | 0.0 | 0.9 | 0.19 | 0.18 | 0.18 | 99 | 1008.6 |
| 20260506115619 | 79 | 353 | 2.6 | 2.6 | 0.26 | 0.17 | 0.17 | 99 | 1008.5 |
| 20260506115117 | 79 | 162 | 1.7 | 4.3 | 0.24 | 0.14 | 0.14 | 99 | 1008.4 |
| 20260506114614 | 80 | 91 | 0.9 | 4.3 | 0.28 | 0.12 | 0.12 | 99 | 1008.4 |
| 20260506114112 | 80 | 342 | 4.3 | 7.0 | 0.19 | 0.10 | 0.10 | 98 | 1008.4 |
| 20260506113610 | 81 | 6 | 2.6 | 5.2 | 0.00 | 0.07 | 0.07 | 95 | 1008.7 |
| 20260506113107 | 82 | 26 | 2.6 | 4.3 | 0.00 | 0.07 | 0.07 | 94 | 1008.5 |
| 20260506112603 | 82 | 347 | 4.3 | 7.8 | 0.00 | 0.07 | 0.07 | 94 | 1008.2 |
| 20260506112101 | 82 | 316 | 4.3 | 5.2 | 0.00 | 0.07 | 0.07 | 93 | 1007.9 |
| 20260506111559 | 82 | 354 | 6.1 | 7.0 | 0.00 | 0.07 | 0.07 | 93 | 1007.8 |
| 20260506111056 | 83 | 321 | 2.6 | 7.0 | 0.00 | 0.07 | 0.07 | 92 | 1008.0 |
| 20260506110553 | 86 | 339 | 3.5 | 5.2 | 0.00 | 0.07 | 0.07 | 88 | 1008.0 |
| 20260506110050 | 86 | 92 | 0.9 | 0.9 | 0.00 | 0.07 | 0.07 | 87 | 1008.1 |
| 20260506105546 | 86 | 116 | 0.0 | 0.9 | 0.00 | 0.07 | 0.07 | 87 | 1007.7 |
| 20260506105044 | 85 | 107 | 0.0 | 0.0 | 0.00 | 0.07 | 0.07 | 89 | 1007.6 |
| 20260506104542 | 85 | 110 | 0.0 | 0.9 | 0.00 | 0.07 | 0.07 | 89 | 1007.6 |
| 20260506104039 | 85 | 115 | 0.0 | 0.9 | 0.00 | 0.07 | 0.07 | 89 | 1007.3 |
| 20260506103536 | 86 | 113 | 0.0 | 0.9 | 0.00 | 0.07 | 0.07 | 88 | 1006.9 |
| 20260506103033 | 86 | 112 | 0.9 | 0.9 | 0.00 | 0.07 | 0.07 | 87 | 1007.0 |
| 20260506102532 | 86 | 108 | 0.0 | 1.7 | 0.00 | 0.07 | 0.07 | 87 | 1007.3 |
| 20260506102029 | 86 | 118 | 0.9 | 1.7 | 0.00 | 0.07 | 0.07 | 86 | 1007.3 |
| 20260506101525 | 86 | 136 | 1.7 | 1.7 | 0.00 | 0.07 | 0.07 | 86 | 1007.3 |
| 20260506101022 | 86 | 127 | 1.7 | 2.6 | 0.00 | 0.07 | 0.07 | 87 | 1007.2 |
| 20260506100520 | 86 | 113 | 0.9 | 0.9 | 0.00 | 0.07 | 0.07 | 86 | 1007.2 |
| 20260506100019 | 86 | 133 | 1.7 | 2.6 | 0.00 | 0.07 | 0.07 | 85 | 1007.2 |
| 20260506095517 | 86 | 132 | 1.7 | 2.6 | 0.00 | 0.07 | 0.07 | 85 | 1006.7 |
| 20260506095012 | 86 | 173 | 3.5 | 5.2 | 0.00 | 0.07 | 0.07 | 85 | 1006.7 |
| 20260506094511 | 86 | 156 | 4.3 | 6.1 | 0.00 | 0.07 | 0.07 | 85 | 1006.8 |
| 20260506094008 | 87 | 129 | 2.6 | 5.2 | 0.00 | 0.07 | 0.07 | 86 | 1006.7 |
| 20260506093507 | 87 | 156 | 3.5 | 7.0 | 0.00 | 0.07 | 0.07 | 85 | 1006.6 |
| 20260506093004 | 87 | 165 | 3.5 | 5.2 | 0.00 | 0.07 | 0.07 | 86 | 1006.6 |
| 20260506092502 | 87 | 143 | 4.3 | 7.0 | 0.00 | 0.07 | 0.07 | 86 | 1006.7 |
| 20260506091958 | 87 | 155 | 4.3 | 6.1 | 0.00 | 0.07 | 0.07 | 85 | 1006.8 |
| 20260506091456 | 87 | 124 | 4.3 | 6.1 | 0.00 | 0.07 | 0.07 | 87 | 1006.5 |
| 20260506090953 | 87 | 124 | 1.7 | 4.3 | 0.00 | 0.07 | 0.07 | 88 | 1006.5 |
| 20260506090451 | 86 | 177 | 1.7 | 1.7 | 0.00 | 0.07 | 0.07 | 89 | 1006.7 |
| 20260506085947 | 85 | 204 | 0.9 | 1.7 | 0.00 | 0.07 | 0.07 | 90 | 1006.6 |
| 20260506085444 | 84 | 134 | 1.7 | 2.6 | 0.00 | 0.07 | 0.07 | 90 | 1006.9 |
| 20260506084940 | 84 | 129 | 1.7 | 1.7 | 0.00 | 0.07 | 0.07 | 90 | 1006.9 |
| 20260506084437 | 85 | 123 | 2.6 | 5.2 | 0.00 | 0.07 | 0.07 | 91 | 1007.0 |
| 20260506083933 | 86 | 138 | 2.6 | 4.3 | 0.00 | 0.07 | 0.07 | 90 | 1006.8 |
| 20260506083431 | 86 | 130 | 0.9 | 1.7 | 0.00 | 0.07 | 0.07 | 91 | 1006.6 |
| 20260506082928 | 86 | 156 | 1.7 | 2.6 | 0.00 | 0.07 | 0.07 | 90 | 1006.7 |
| 20260506082425 | 86 | 119 | 0.9 | 1.7 | 0.00 | 0.07 | 0.07 | 90 | 1006.6 |
| 20260506081920 | 86 | 104 | 0.0 | 0.9 | 0.00 | 0.07 | 0.07 | 91 | 1006.3 |
| 20260506081419 | 86 | 115 | 0.9 | 1.7 | 0.00 | 0.07 | 0.07 | 90 | 1006.6 |
| 20260506080916 | 86 | 175 | 1.7 | 2.6 | 0.00 | 0.07 | 0.07 | 89 | 1006.8 |
| 20260506080412 | 86 | 123 | 0.9 | 4.3 | 0.00 | 0.07 | 0.07 | 89 | 1006.6 |
| 20260506073357 | 88 | 112 | 0.0 | 0.9 | 0.00 | 0.07 | 0.07 | 85 | 1006.7 |
| 20260506072853 | 89 | 150 | 2.6 | 2.6 | 0.00 | 0.07 | 0.07 | 86 | 1006.7 |
| 20260506072351 | 90 | 105 | 0.9 | 1.7 | 0.00 | 0.07 | 0.07 | 84 | 1007.0 |
| 20260506071848 | 90 | 132 | 0.9 | 1.7 | 0.00 | 0.07 | 0.07 | 82 | 1007.2 |
| 20260506071347 | 90 | 131 | 2.6 | 4.3 | 0.00 | 0.07 | 0.07 | 83 | 1007.0 |
| 20260506070843 | 91 | 120 | 2.6 | 4.3 | 0.00 | 0.07 | 0.07 | 83 | 1007.3 |
| 20260506070340 | 90 | 129 | 1.7 | 2.6 | 0.00 | 0.07 | 0.07 | 85 | 1006.9 |
| 20260506062317 | 86 | 40 | 1.7 | 5.2 | 0.00 | 0.07 | 0.07 | 93 | 1007.8 |
| 20260506061813 | 86 | 77 | 2.6 | 2.6 | 0.00 | 0.07 | 0.07 | 95 | 1008.0 |
| 20260506061310 | 85 | 19 | 1.7 | 2.6 | 0.02 | 0.07 | 0.07 | 98 | 1008.2 |
| 20260506060809 | 84 | 101 | 1.7 | 2.6 | 0.05 | 0.07 | 0.07 | 99 | 1008.4 |
| 20260506060307 | 84 | 341 | 2.6 | 2.6 | 0.09 | 0.06 | 0.06 | 99 | 1008.7 |
| 20260506051238 | 88 | 92 | 1.7 | 5.2 | 0.00 | 0.04 | 0.04 | 89 | 1009.4 |
| 20260506050736 | 87 | 64 | 0.9 | 0.9 | 0.00 | 0.04 | 0.04 | 91 | 1009.5 |
| 20260506050233 | 87 | 98 | 0.0 | 1.7 | 0.00 | 0.04 | 0.04 | 93 | 1009.6 |
| 20260506044724 | 86 | 79 | 0.9 | 0.9 | 0.02 | 0.04 | 0.04 | 92 | 1009.6 |
| 20260506044221 | 86 | 96 | 0.0 | 0.9 | 0.02 | 0.04 | 0.04 | 94 | 1009.8 |
| 20260506043718 | 86 | 104 | 0.0 | 0.0 | 0.00 | 0.03 | 0.03 | 94 | 1009.9 |
| 20260506043216 | 86 | 86 | 0.0 | 0.9 | 0.00 | 0.03 | 0.03 | 93 | 1009.9 |
| 20260506042714 | 86 | 60 | 0.9 | 0.9 | 0.00 | 0.03 | 0.03 | 94 | 1010.2 |
| 20260506042212 | 85 | 102 | 0.0 | 0.9 | 0.00 | 0.03 | 0.03 | 96 | 1010.2 |
| 20260506041710 | 84 | 33 | 0.9 | 1.7 | 0.00 | 0.03 | 0.03 | 97 | 1010.1 |
| 20260506041207 | 84 | 276 | 0.9 | 1.7 | 0.00 | 0.03 | 0.03 | 98 | 1010.2 |
| 20260506040705 | 84 | 49 | 0.9 | 0.9 | 0.05 | 0.03 | 0.03 | 98 | 1010.4 |
| 20260506040201 | 84 | 101 | 0.0 | 0.0 | 0.09 | 0.03 | 0.03 | 98 | 1010.2 |
| 20260506035658 | 85 | 113 | 0.9 | 0.9 | 0.14 | 0.02 | 0.02 | 96 | 1010.2 |
| 20260506035155 | 86 | 105 | 0.9 | 0.9 | 0.09 | 0.02 | 0.02 | 92 | 1010.4 |
| 20260506034652 | 86 | 103 | 0.0 | 0.9 | 0.00 | 0.00 | 0.00 | 89 | 1010.4 |
| 20260506034149 | 86 | 93 | 0.9 | 0.9 | 0.00 | 0.00 | 0.00 | 90 | 1010.4 |
| 20260506033646 | 86 | 108 | 0.0 | 0.9 | 0.00 | 0.00 | 0.00 | 91 | 1010.4 |
| 20260506033143 | 86 | 124 | 0.9 | 1.7 | 0.00 | 0.00 | 0.00 | 91 | 1010.5 |
| 20260506032640 | 86 | 131 | 0.9 | 1.7 | 0.00 | 0.00 | 0.00 | 90 | 1010.5 |
| 20260506032137 | 86 | 104 | 0.0 | 0.9 | 0.00 | 0.00 | 0.00 | 89 | 1010.6 |
| 20260506031634 | 87 | 106 | 0.0 | 1.7 | 0.00 | 0.00 | 0.00 | 89 | 1010.7 |
| 20260506031131 | 86 | 96 | 0.0 | 1.7 | 0.00 | 0.00 | 0.00 | 88 | 1010.7 |
| 20260506030630 | 87 | 112 | 0.9 | 1.7 | 0.00 | 0.00 | 0.00 | 89 | 1010.5 |
| 20260506030126 | 86 | 108 | 0.9 | 2.6 | 0.00 | 0.00 | 0.00 | 89 | 1010.7 |
| 20260506025623 | 87 | 120 | 2.6 | 2.6 | 0.00 | 0.00 | 0.00 | 88 | 1010.8 |
| 20260506025119 | 87 | 107 | 1.7 | 2.6 | 0.00 | 0.00 | 0.00 | 88 | 1011.0 |
| 20260506024617 | 87 | 99 | 1.7 | 2.6 | 0.00 | 0.00 | 0.00 | 87 | 1010.7 |
| 20260506024113 | 88 | 117 | 0.9 | 1.7 | 0.00 | 0.00 | 0.00 | 86 | 1011.1 |
| 20260506023609 | 86 | 127 | 0.9 | 0.9 | 0.00 | 0.00 | 0.00 | 88 | 1010.7 |
| 20260506023107 | 87 | 143 | 1.7 | 2.6 | 0.00 | 0.00 | 0.00 | 87 | 1010.8 |
| 20260506022604 | 87 | 137 | 0.0 | 0.9 | 0.00 | 0.00 | 0.00 | 88 | 1011.0 |
| 20260506022101 | 87 | 343 | 1.7 | 1.7 | 0.00 | 0.00 | 0.00 | 86 | 1010.8 |
| 20260506021559 | 88 | 275 | 1.7 | 1.7 | 0.00 | 0.00 | 0.00 | 85 | 1010.8 |
| 20260506021056 | 88 | 182 | 0.0 | 1.7 | 0.00 | 0.00 | 0.00 | 85 | 1010.9 |
| 20260506020553 | 88 | 85 | 0.9 | 2.6 | 0.00 | 0.00 | 0.00 | 85 | 1010.8 |
| 20260506020050 | 87 | 85 | 0.0 | 1.7 | 0.00 | 0.00 | 0.00 | 88 | 1010.8 |
| 20260506015548 | 85 | 93 | 0.0 | 0.0 | 0.00 | 0.00 | 0.00 | 91 | 1010.9 |
| 20260506015045 | 85 | 142 | 1.7 | 2.6 | 0.00 | 0.00 | 0.00 | 94 | 1011.0 |
| 20260506014542 | 85 | 151 | 0.9 | 1.7 | 0.00 | 0.00 | 0.00 | 92 | 1011.0 |
| 20260506014038 | 85 | 91 | 0.0 | 0.9 | 0.00 | 0.00 | 0.00 | 92 | 1010.9 |
| 20260506013536 | 84 | 111 | 0.0 | 0.0 | 0.00 | 0.00 | 0.00 | 94 | 1010.7 |
| 20260506013032 | 84 | 100 | 0.0 | 0.0 | 0.00 | 0.00 | 0.00 | 94 | 1010.8 |
| 20260506012529 | 84 | 106 | 0.0 | 0.0 | 0.00 | 0.00 | 0.00 | 94 | 1010.8 |
| 20260506012026 | 84 | 100 | 0.9 | 0.9 | 0.00 | 0.00 | 0.00 | 94 | 1010.8 |
| 20260506011523 | 84 | 81 | 0.0 | 0.0 | 0.00 | 0.00 | 0.00 | 94 | 1010.6 |
| 20260506011019 | 83 | 95 | 0.0 | 0.9 | 0.00 | 0.00 | 0.00 | 94 | 1010.6 |
| 20260506010519 | 83 | 81 | 0.0 | 0.9 | 0.00 | 0.00 | 0.00 | 95 | 1010.7 |
| 20260506010015 | 83 | 104 | 0.0 | 0.9 | 0.00 | 0.00 | 0.00 | 96 | 1010.5 |
| 20260506005512 | 83 | 89 | 0.0 | 0.9 | 0.00 | 0.00 | 0.00 | 96 | 1010.4 |
| 20260506005008 | 83 | 113 | 0.0 | 0.9 | 0.00 | 0.00 | 0.00 | 97 | 1010.4 |
| 20260506004506 | 83 | 116 | 0.9 | 0.9 | 0.00 | 0.00 | 0.00 | 96 | 1010.5 |
| 20260506004002 | 83 | 100 | 0.0 | 0.9 | 0.00 | 0.00 | 0.00 | 96 | 1010.2 |
| 20260506003458 | 83 | 112 | 0.9 | 0.9 | 0.00 | 0.00 | 0.00 | 97 | 1010.2 |
| 20260506002954 | 83 | 105 | 0.0 | 0.9 | 0.00 | 0.00 | 0.00 | 97 | 1010.3 |
| 20260506002451 | 82 | 94 | 0.0 | 0.0 | 0.00 | 0.00 | 0.00 | 96 | 1010.0 |
| 20260506001946 | 82 | 101 | 0.0 | 0.0 | 0.00 | 0.00 | 0.00 | 97 | 1010.1 |
| 20260506001443 | 82 | 104 | 0.0 | 0.9 | 0.00 | 0.00 | 0.00 | 98 | 1010.2 |
| 20260506000941 | 82 | 104 | 0.0 | 0.0 | 0.00 | 0.00 | 0.00 | 98 | 1010.1 |
| 20260506000438 | 82 | 110 | 0.0 | 0.9 | 0.00 | 0.00 | 0.00 | 98 | 1009.9 |
| 20260505235935 | 82 | 106 | 0.0 | 0.0 | 0.00 | 0.00 | 0.00 | 98 | 1009.8 |
| 20260505235433 | 81 | 93 | 0.0 | 0.9 | 0.00 | 0.00 | 0.00 | 99 | 1009.7 |
| 20260505234929 | 81 | 105 | 0.9 | 0.9 | 0.00 | 0.00 | 0.00 | 99 | 1009.5 |
| 20260505234427 | 81 | 48 | 0.9 | 0.9 | 0.00 | 0.00 | 0.00 | 99 | 1009.6 |
| 20260505233923 | 80 | 96 | 0.0 | 0.0 | 0.00 | 0.00 | 0.00 | 99 | 1009.6 |
| 20260505233421 | 80 | 96 | 0.0 | 0.0 | 0.00 | 0.00 | 0.00 | 99 | 1009.5 |
| 20260505232919 | 80 | 100 | 0.0 | 0.0 | 0.00 | 0.00 | 0.00 | 99 | 1009.4 |
| 20260505232416 | 80 | 98 | 0.0 | 0.0 | 0.00 | 0.00 | 0.00 | 99 | 1009.3 |
| 20260505231913 | 80 | 96 | 0.0 | 0.9 | 0.00 | 0.00 | 0.00 | 99 | 1009.2 |
| 20260505231411 | 80 | 98 | 0.0 | 0.0 | 0.00 | 0.00 | 0.00 | 99 | 1009.4 |
| 20260505230908 | 80 | 94 | 0.0 | 0.0 | 0.00 | 0.00 | 0.00 | 99 | 1009.3 |
| 20260505230406 | 80 | 99 | 0.0 | 0.0 | 0.00 | 0.00 | 0.00 | 99 | 1009.4 |
| 20260505225902 | 80 | 90 | 0.0 | 0.0 | 0.00 | 0.00 | 0.00 | 99 | 1009.2 |
| 20260505225359 | 79 | 104 | 0.0 | 0.0 | 0.00 | 0.00 | 0.00 | 99 | 1009.3 |
| 20260505224854 | 79 | 103 | 0.0 | 0.0 | 0.00 | 0.00 | 0.00 | 99 | 1009.1 |
| 20260505224352 | 80 | 107 | 0.0 | 0.0 | 0.00 | 0.00 | 0.00 | 99 | 1009.0 |
| 20260505223849 | 80 | 93 | 0.0 | 0.0 | 0.00 | 0.00 | 0.00 | 99 | 1009.0 |
| 20260505223346 | 80 | 78 | 0.0 | 0.9 | 0.00 | 0.00 | 0.00 | 99 | 1009.0 |
| 20260505222842 | 80 | 90 | 0.0 | 0.0 | 0.00 | 0.00 | 0.00 | 99 | 1008.8 |
| 20260505222338 | 80 | 82 | 0.0 | 0.9 | 0.00 | 0.00 | 0.00 | 99 | 1008.8 |
| 20260505221836 | 80 | 91 | 0.0 | 0.9 | 0.00 | 0.00 | 0.00 | 99 | 1009.0 |
| 20260505221332 | 80 | 98 | 0.0 | 0.0 | 0.00 | 0.00 | 0.00 | 99 | 1008.7 |
| 20260505220829 | 80 | 100 | 0.0 | 0.0 | 0.00 | 0.00 | 0.00 | 99 | 1008.7 |
| 20260505220326 | 80 | 98 | 0.0 | 0.9 | 0.00 | 0.00 | 0.00 | 99 | 1008.5 |
| 20260505215824 | 80 | 39 | 0.9 | 1.7 | 0.00 | 0.00 | 0.00 | 99 | 1008.6 |
| 20260505215322 | 80 | 102 | 0.0 | 0.0 | 0.00 | 0.00 | 0.00 | 99 | 1008.6 |
| 20260505214820 | 80 | 110 | 0.0 | 0.0 | 0.00 | 0.00 | 0.00 | 99 | 1008.6 |
| 20260505214317 | 80 | 131 | 0.9 | 1.7 | 0.00 | 0.00 | 0.00 | 99 | 1008.9 |
| 20260505213813 | 80 | 104 | 0.9 | 0.9 | 0.00 | 0.00 | 0.00 | 99 | 1008.6 |
| 20260505213312 | 80 | 104 | 0.0 | 0.0 | 0.00 | 0.00 | 0.00 | 99 | 1008.6 |
| 20260505212807 | 80 | 113 | 0.0 | 0.0 | 0.00 | 0.00 | 0.00 | 99 | 1008.4 |
| 20260505212306 | 79 | 90 | 0.0 | 0.0 | 0.00 | 0.00 | 0.00 | 99 | 1008.7 |
| 20260505211801 | 79 | 108 | 0.0 | 0.0 | 0.00 | 0.00 | 0.00 | 99 | 1008.5 |
| 20260505211259 | 79 | 111 | 0.0 | 0.9 | 0.00 | 0.00 | 0.00 | 99 | 1008.7 |
| 20260505210754 | 79 | 114 | 0.9 | 0.9 | 0.00 | 0.00 | 0.00 | 99 | 1008.6 |
| 20260505210252 | 80 | 117 | 0.9 | 0.9 | 0.00 | 0.00 | 0.00 | 99 | 1008.7 |